This is the latest recevied weather packets stored in our database for station/object F1DKL-13. If no packets are shown the sender has not sent any weather packets the latest 10 day(s).
| Time | Temp. | Humidity | Pressure | Rain* | Wind** | Luminosity | Snow |
|---|---|---|---|---|---|---|---|
| 1777383605 | 14.44° C | 74% | 1020.4 hPa | 4.06 mm | - | - | - |
| 1777383305 | 14.44° C | 75% | 1020.4 hPa | 7.37 mm | - | - | - |
| 1777383005 | 13.89° C | 74% | 1020.4 hPa | 9.4 mm | - | - | - |
| 1777382705 | 13.89° C | 74% | 1020.4 hPa | 11.43 mm | - | - | - |
| 1777382405 | 13.33° C | 73% | 1020.4 hPa | 13.72 mm | - | - | - |
| 1777382105 | 13.33° C | 72% | 1020.4 hPa | 14.73 mm | - | - | - |
| 1777381805 | 13.33° C | 73% | 1020.4 hPa | 15.75 mm | - | - | - |
| 1777381505 | 13.33° C | 73% | 1020.4 hPa | 15.75 mm | - | - | - |
| 1777381205 | 13.33° C | 75% | 1020.4 hPa | 15.75 mm | - | - | - |
| 1777380905 | 12.78° C | 69% | 1020.4 hPa | 15.75 mm | - | - | - |
| 1777380605 | 13.33° C | 69% | 1020.4 hPa | 15.75 mm | - | - | - |
| 1777380305 | 13.33° C | 63% | 1020.4 hPa | 14.73 mm | - | - | - |
| 1777380005 | 13.89° C | 61% | 1020.4 hPa | 11.68 mm | - | - | - |
| 1777379705 | 14.44° C | 59% | 1020.4 hPa | 8.38 mm | - | - | - |
| 1777379405 | 14.44° C | 59% | 1020.4 hPa | 6.35 mm | - | - | - |
| 1777379105 | 15.56° C | 55% | 1020.4 hPa | 4.32 mm | - | - | - |
| 1777378805 | 16.11° C | 53% | 1020.4 hPa | 2.03 mm | - | - | - |
| 1777378505 | 17.22° C | 48% | 1020.4 hPa | 1.02 mm | - | - | - |
| 1777378205 | 17.78° C | 45% | 1020.4 hPa | 0 mm | - | - | - |
| 1777377905 | 18.89° C | 38% | 1020.4 hPa | 0 mm | - | - | - |
| 1777377605 | 19.44° C | 36% | 1020.4 hPa | 0 mm | - | - | - |
| 1777377305 | 20° C | 34% | 1020.4 hPa | 0 mm | - | - | - |
| 1777377005 | 20.56° C | 31% | 1020.4 hPa | 0 mm | - | - | - |
| 1777376705 | 21.11° C | 24% | 1020.4 hPa | 0 mm | - | - | - |
| 1777376405 | 21.67° C | 12% | 1019.3 hPa | 0 mm | - | - | - |
* Rain latest hour (hover to see other rain measurements)
** Current wind speed in m/s (hover to see current wind gust speed)